Voltar ao catálogo

SKY MEXICO-1

AtivoComunicaçõesGEO
NORAD 40664·PAYLOAD·🇲🇽 Mexico

Lançado May 27, 2015 de Guiana Space Centre

Loading…

TLE

AtualizadoSource: Space-Track

Época: Sep 14, 2026, 21:58 UTC

1 40664U 15026B   26257.91593405 -.00000241  00000-0  00000-0 0  9990
2 40664   0.0312 266.0427 0002026 263.7990  74.9952  1.00271219 41353

Acompanhe SKY MEXICO-1 em tempo real com AllMySat

Download on the App Store